全球星 M033星 (GLOBALSTAR M033)

导读 | 星芒AI

GLOBALSTAR M033 是 Globalstar 卫星通信公司运营的一颗低轨道(LEO)通信卫星,属于其第二代卫星星座(Globalstar 2)的一部分。该卫星主要用于提供移动语音和数据通信服务,支持偏远地区的用户接入。M033 卫星采用先进通信技术,提高信号传输效率和覆盖范围,增强系统稳定性和服务质量。作为 Globalstar 网络的重要节点,M033 卫星与地面基站和用户终端协同工作,实现全球范围内的可靠通信。

基本信息
目录编号:
25909
目录名称:
GLOBALSTAR M033
国际标识:
1999-049C
轨道中心:
EARTH
卫星名称:
全球星 M033星
卫星全名:
全球星 M033星 (GLOBALSTAR M033)
卫星状态:
在轨 (已飞行9534 天)
发射日期:
1999-09-22 UTC
国别 :
(GLOB)
星等 :
--
轨道信息
数据来源 国际轨道数据
星历时间: 2025-10-28T20:49:41+0800
1天前
查看轨道信息
半长轴: 7969.405km
偏心率: 0.0013953
轨道倾角: 51.993°
近地点辐角 178.505°
升交点赤经 333.436°
平近点角 181.584°
近地点: 1580.15km
远地点: 1602.39km
周期: 118.004分钟
每日圈数: 12.202926
详细信息
固有亮度:
5
最大亮度:
7.9
平衡模式:
三轴稳定
覆盖范围:
全球
运营商:
全球星公司
运营商所在国:
美国
使用方式:
暂无
卫星简介
全球星星座由48颗卫星加8颗备份星组成。这些卫星分布在8个倾角为52度的圆形轨道平面上,每个轨道平面6颗卫星,另有1 颗备用星。轨道高度约为1414km,传输时延和处理时延小于300ms,整个系统的覆盖区为南北纬70度以内的地区。该卫星已退役。
2D轨道图
3D轨道图
轨道高度分析图
轨道倾角分析图
轨道综合分析图
查看轨道综合分析图